"2004/01/01",  5.9,  9.2,  2.2
"2004/01/02",  6.3, 11.0,  1.4
"2004/01/03",  7.3, 12.8,  2.4
"2004/01/04",  5.5,  8.2,  2.2
"2004/01/05",  4.3,  6.6,  1.2
"2004/01/06",  4.2,  7.5,  0.3
"2004/01/07",  3.5,  5.6,  1.3
"2004/01/08",  2.8,  5.6, -0.2
"2004/01/09",  2.8,  7.7, -2.1
"2004/01/10",  2.7,  8.8, -2.8
"2004/01/11",  3.7,  6.9, -0.4
"2004/01/12",  2.4,  5.5, -3.5
"2004/01/13",  4.6,  8.9,  2.6
"2004/01/14",  2.5,  4.7, -0.4
"2004/01/15",  2.5,  6.0, -0.6
"2004/01/16",  1.5,  4.5, -2.1
"2004/01/17",  2.2,  4.0,  0.3
"2004/01/18",  3.0,  6.5,  0.8
"2004/01/19",  3.1,  5.2,  0.8
"2004/01/20",  4.0,  8.1,  0.0
"2004/01/21",  5.5,  9.3,  2.0
"2004/01/22",  2.3,  6.9, -1.3
"2004/01/23",  2.6,  7.8, -2.3
"2004/01/24",  1.2,  3.7, -2.1
"2004/01/25",  2.3,  6.8, -3.7
"2004/01/26",  1.8,  6.8, -3.7
"2004/01/27",  2.2,  5.3, -0.6
"2004/01/28",  3.1,  9.7, -2.7
"2004/01/29",  4.3,  7.3,  1.4
"2004/01/30",  3.9,  9.3,  0.9
"2004/01/31",  3.1,  7.6, -1.1
"2004/02/01",  2.6,  6.8, -2.7
"2004/02/02",  4.5,  5.7,  3.7
"2004/02/03",  4.5,  7.3,  2.5
"2004/02/04",  4.0,  8.8,  0.5
"2004/02/05",  4.2,  8.3,  0.8
"2004/02/06",  2.8,  7.2, -1.7
"2004/02/07",  3.3,  7.5, -0.6
"2004/02/08",  2.4,  8.9, -3.5
"2004/02/09",  3.7,  8.3, -1.4
"2004/02/10",  2.0,  3.7,  0.0
"2004/02/11",  2.5,  5.9, -2.0
"2004/02/12",  4.3, 11.8, -1.8
"2004/02/13",  4.2,  6.9, -0.9
"2004/02/14",  8.2, 13.5,  4.1
"2004/02/15",  7.1, 10.8,  3.1
"2004/02/16",  5.2, 10.9,  0.1
"2004/02/17",  6.0, 11.8,  0.0
"2004/02/18",  6.8, 11.1,  2.9
"2004/02/19",  5.5, 12.4, -0.8
"2004/02/20",  5.5,  6.5,  3.8
"2004/02/21",  8.9, 16.4,  2.6
"2004/02/22", 12.4, 19.2,  3.8
"2004/02/23",  9.9, 16.2,  2.6
"2004/02/24",  5.5,  9.8, -0.7
"2004/02/25",  7.8, 13.4,  3.8
"2004/02/26",  8.3, 17.1,  1.5
"2004/02/27",  5.4,  9.5,  1.3
"2004/02/28",  5.5,  8.8,  1.9
"2004/02/29",  8.6, 14.5,  3.9
"2004/03/01",  3.4,  8.4,  0.1
"2004/03/02",  2.9,  5.4, -1.1
"2004/03/03",  2.8,  4.6,  0.1
"2004/03/04",  4.2,  8.4,  2.1
"2004/03/05",  4.7, 10.4, -1.9
"2004/03/06",  6.9, 12.5,  2.7
"2004/03/07",  3.2,  7.7, -1.9
"2004/03/08",  3.6,  9.2, -2.6
"2004/03/09",  5.7, 11.4,  1.6
"2004/03/10",  9.9, 15.5,  3.8
"2004/03/11", 14.7, 18.8,  9.2
"2004/03/12"," * "," * "," * "
"2004/03/13",  7.7, 13.9,  1.6
"2004/03/14",  8.4, 14.1,  1.5
"2004/03/15",  7.8, 10.8,  5.4
"2004/03/16",  8.4, 13.8,  5.4
"2004/03/17", 14.9, 19.7,  7.3
"2004/03/18", 10.9, 17.9,  4.1
"2004/03/19",  4.5,  6.6,  2.6
"2004/03/20",  3.7,  5.9,  1.8
"2004/03/21",  5.3,  8.5, -0.5
"2004/03/22",  5.4,  7.3,  3.4
"2004/03/23",  5.1,  6.3,  2.9
"2004/03/24",  6.1,  8.1,  4.3
"2004/03/25",  8.0,  9.4,  5.8
"2004/03/26",  7.8, 10.0,  4.9
"2004/03/27",  7.8, 14.2,  2.1
"2004/03/28",  8.9, 13.6,  2.9
"2004/03/29", 13.0, 19.1,  7.1
"2004/03/30", 14.3, 17.2, 12.3
"2004/03/31", 13.8, 19.5,  9.7
"2004/04/01", 11.3, 15.7,  7.7
"2004/04/02", 14.9, 19.9, 12.2
"2004/04/03", 12.6, 16.9,  8.7
"2004/04/04",  6.1,  8.9,  3.3
"2004/04/05",  7.5,  9.8,  3.8
"2004/04/06", 12.1, 18.0,  6.1
"2004/04/07", 14.4, 19.7,  9.4
"2004/04/08",  9.2, 11.6,  6.9
"2004/04/09", 12.5, 18.2,  7.7
"2004/04/10", 13.1, 16.4, 10.2
"2004/04/11", 11.8, 16.1, 10.0
"2004/04/12", 15.6, 22.2,  9.1
"2004/04/13",  8.9, 10.5,  7.7
"2004/04/14", 11.5, 14.7,  8.1
"2004/04/15", 12.4, 14.5, 10.3
"2004/04/16", 15.4, 20.6, 10.4
"2004/04/17", 17.5, 24.6, 11.5
"2004/04/18", 14.0, 19.6,  9.5
"2004/04/19", 17.1, 20.3, 14.6
"2004/04/20", 19.7, 26.6, 15.9
"2004/04/21", 16.8, 23.5, 10.5
"2004/04/22", 19.1, 26.3, 13.0
"2004/04/23", 11.3, 19.7,  9.2
"2004/04/24",  9.9, 13.0,  5.9
"2004/04/25", 11.3, 16.2,  5.5
"2004/04/26", 12.7, 17.6,  8.5
"2004/04/27", 17.6, 22.3, 11.9
"2004/04/28", 12.6, 19.0,  9.0
"2004/04/29", 13.5, 18.3,  9.4
"2004/04/30", 16.9, 23.1, 10.5
"2004/05/01", 13.8, 18.7,  9.2
"2004/05/02",  9.7, 10.6,  8.7
"2004/05/03", 14.0, 18.4,  9.5
"2004/05/04", 20.0, 22.4, 15.1
"2004/05/05", 11.6, 15.1, 10.8
"2004/05/06", 11.7, 13.0, 10.2
"2004/05/07", 14.8, 19.1, 11.1
"2004/05/08", 15.3, 17.8, 13.4
"2004/05/09", 16.1, 19.3, 13.6
"2004/05/10", 17.4, 20.7, 15.0
"2004/05/11", 20.7, 28.7, 16.1
"2004/05/12", 16.8, 18.1, 16.0
"2004/05/13", 20.5, 23.5, 15.3
"2004/05/14", 18.9, 23.0, 14.2
"2004/05/15", 15.9, 18.5, 13.3
"2004/05/16", 16.4, 17.7, 15.0
"2004/05/17", 19.9, 24.5, 16.8
"2004/05/18", 17.8, 19.4, 16.6
"2004/05/19", 16.8, 19.3, 14.7
"2004/05/20", 14.4, 15.5, 13.2
"2004/05/21", 14.8, 20.7, 11.8
"2004/05/22", 10.9, 12.1, 10.1
"2004/05/23", 11.2, 12.1, 10.2
"2004/05/24", 14.3, 18.0, 11.5
"2004/05/25", 16.3, 19.8, 11.5
"2004/05/26", 19.1, 23.4, 14.5
"2004/05/27", 19.8, 21.6, 18.2
"2004/05/28", 20.2, 22.7, 17.9
"2004/05/29", 22.1, 26.2, 18.6
"2004/05/30", 23.4, 28.2, 18.9
"2004/05/31", 24.0, 27.4, 16.4
"2004/06/01", 14.9, 16.7, 12.8
"2004/06/02", 16.9, 19.9, 13.2
"2004/06/03", 17.7, 20.1, 13.5
"2004/06/04", 18.6, 24.0, 11.9
"2004/06/05", 20.5, 24.9, 15.3
"2004/06/06", 19.0, 21.8, 16.0
"2004/06/07", 21.1, 25.4, 17.0
"2004/06/08", 17.7, 22.4, 14.0
"2004/06/09", 15.7, 17.4, 14.1
"2004/06/10", 19.5, 22.4, 16.1
"2004/06/11", 18.0, 20.8, 15.1
"2004/06/12", 18.7, 23.2, 15.5
"2004/06/13", 18.6, 20.2, 16.5
"2004/06/14", 19.6, 22.9, 16.1
"2004/06/15", 22.0, 28.9, 15.8
"2004/06/16", 16.1, 17.5, 14.5
"2004/06/17", 18.7, 23.3, 14.3
"2004/06/18", 23.1, 27.0, 19.4
"2004/06/19", 24.0, 28.1, 20.7
"2004/06/20", 25.8, 28.7, 22.9
"2004/06/21", 25.0, 26.9, 23.5
"2004/06/22", 26.4, 29.1, 23.0
"2004/06/23", 25.3, 29.7, 22.4
"2004/06/24", 25.6, 30.3, 22.5
"2004/06/25", 23.9, 26.3, 19.6
"2004/06/26", 18.8, 22.1, 17.2
"2004/06/27", 19.7, 23.0, 17.0
"2004/06/28", 20.5, 25.0, 18.2
"2004/06/29", 24.4, 29.9, 19.8
"2004/06/30", 24.8, 26.4, 23.6
"2004/07/01", 21.9, 24.1, 18.9
"2004/07/02", 18.8, 19.9, 17.6
"2004/07/03", 18.4, 20.7, 16.3
"2004/07/04", 22.0, 26.4, 16.8
"2004/07/05", 25.5, 28.5, 22.4
"2004/07/06", 27.1, 30.4, 24.2
"2004/07/07", 26.7, 32.1, 23.0
"2004/07/08", 24.0, 31.2, 20.8
"2004/07/09", 25.7, 31.9, 21.0
"2004/07/10", 26.7, 31.4, 24.2
"2004/07/11", 24.6, 29.0, 21.9
"2004/07/12", 22.1, 23.9, 20.6
"2004/07/13", 23.2, 29.6, 19.4
"2004/07/14", 22.4, 26.5, 19.3
"2004/07/15", 22.8, 26.2, 21.0
"2004/07/16", 24.4, 30.0, 21.9
"2004/07/17", 26.2, 31.5, 22.1
"2004/07/18", 27.0, 33.1, 21.7
"2004/07/19", 27.4, 31.8, 24.6
"2004/07/20", 28.9, 35.7, 24.2
"2004/07/21", 28.6, 31.4, 24.9
"2004/07/22", 24.4, 25.8, 22.2
"2004/07/23", 25.3, 29.1, 22.4
"2004/07/24", 27.3, 30.3, 24.2
"2004/07/25", 28.0, 32.0, 25.0
"2004/07/26", 26.7, 30.7, 24.3
"2004/07/27", 25.8, 28.7, 22.8
"2004/07/28", 24.1, 25.9, 22.7
"2004/07/29", 25.1, 27.1, 23.5
"2004/07/30", 26.2, 28.3, 24.5
"2004/07/31", 26.3, 28.5, 24.3
"2004/08/01", 26.1, 29.1, 23.6
"2004/08/02", 25.8, 29.0, 23.3
"2004/08/03", 26.2, 29.1, 23.3
"2004/08/04", 26.3, 29.4, 24.3
"2004/08/05", 26.7, 30.1, 24.6
"2004/08/06", 27.1, 30.9, 24.6
"2004/08/07", 26.0, 29.9, 23.4
"2004/08/08", 26.2, 30.5, 23.5
"2004/08/09", 26.6, 31.4, 23.1
"2004/08/10", 27.0, 31.4, 23.3
"2004/08/11", 25.4, 27.4, 23.7
"2004/08/12", 26.0, 30.0, 23.0
"2004/08/13", 26.9, 30.6, 23.8
"2004/08/14", 26.4, 31.1, 23.4
"2004/08/15", 19.5, 24.0, 17.3
"2004/08/16", 22.5, 28.7, 16.7
"2004/08/17", 22.9, 25.0, 21.8
"2004/08/18", 27.5, 31.5, 22.3
"2004/08/19", 28.6, 31.5, 25.9
"2004/08/20", 28.6, 32.9, 23.9
"2004/08/21", 23.1, 25.2, 21.5
"2004/08/22", 22.5, 24.2, 20.7
"2004/08/23", 20.7, 21.6, 20.1
"2004/08/24", 23.5, 28.4, 18.8
"2004/08/25", 23.3, 25.0, 21.7
"2004/08/26", 22.8, 25.4, 21.3
"2004/08/27", 21.4, 23.0, 20.0
"2004/08/28", 20.9, 21.7, 20.3
"2004/08/29", 20.1, 20.9, 19.3
"2004/08/30", 24.0, 29.7, 20.2
"2004/08/31", 27.6, 30.0, 24.4
"2004/09/01", 26.4, 31.2, 23.0
"2004/09/02", 23.4, 25.7, 21.5
"2004/09/03", 23.3, 26.3, 21.4
"2004/09/04", 22.0, 23.5, 20.1
"2004/09/05", 21.4, 22.9, 19.7
"2004/09/06", 24.2, 27.9, 21.4
"2004/09/07", 26.7, 29.5, 24.7
"2004/09/08", 27.7, 29.9, 24.4
"2004/09/09", 23.0, 24.8, 20.3
"2004/09/10", 22.1, 24.1, 20.2
"2004/09/11", 21.1, 22.4, 19.4
"2004/09/12", 21.4, 23.9, 19.1
"2004/09/13", 24.3, 28.5, 20.7
"2004/09/14", 25.6, 30.5, 21.5
"2004/09/15", 20.2, 21.8, 18.2
"2004/09/16", 19.5, 22.7, 16.9
"2004/09/17", 22.7, 27.2, 18.2
"2004/09/18", 24.3, 28.4, 21.5
"2004/09/19", 25.0, 28.2, 22.7
"2004/09/20", 24.7, 28.0, 22.3
"2004/09/21", 26.2, 29.1, 23.7
"2004/09/22", 23.7, 28.4, 20.2
"2004/09/23", 21.3, 22.9, 20.1
"2004/09/24", 20.7, 22.5, 19.8
"2004/09/25", 21.3, 22.6, 20.5
"2004/09/26", 19.7, 21.2, 18.5
"2004/09/27", 18.8, 19.6, 18.2
"2004/09/28", 19.8, 21.5, 18.6
"2004/09/29", 20.7, 23.1, 19.7
"2004/09/30", 24.1, 27.5, 19.9
"2004/10/01", 19.2, 22.1, 15.8
"2004/10/02", 20.6, 26.1, 15.8
"2004/10/03", 17.8, 22.2, 16.0
"2004/10/04", 17.4, 18.4, 16.4
"2004/10/05", 17.3, 17.8, 16.3
"2004/10/06", 17.3, 20.1, 14.9
"2004/10/07", 17.1, 21.1, 12.7
"2004/10/08", 16.4, 17.8, 14.7
"2004/10/09", 17.7, 18.9, 16.6
"2004/10/10", 17.6, 19.3, 16.6
"2004/10/11", 17.7, 18.6, 16.7
"2004/10/12", 18.3, 20.2, 17.0
"2004/10/13", 17.9, 18.4, 16.5
"2004/10/14", 15.8, 16.8, 14.2
"2004/10/15", 15.8, 20.1, 11.2
"2004/10/16", 14.6, 16.1, 12.9
"2004/10/17", 14.8, 15.8, 12.5
"2004/10/18", 14.7, 17.6, 11.0
"2004/10/19", 15.6, 16.4, 14.5
"2004/10/20", 17.3, 23.4, 16.0
"2004/10/21", 16.8, 23.2, 13.3
"2004/10/22", 16.7, 22.5, 12.5
"2004/10/23", 15.7, 16.8, 13.0
"2004/10/24", 14.0, 15.4, 11.4
"2004/10/25"," * "," * "," * "
"2004/10/26", 14.1, 16.7, 11.4
"2004/10/27", 11.6, 12.9, 10.1
"2004/10/28", 11.2, 13.1,  8.7
"2004/10/29", 12.0, 15.1,  6.4
"2004/10/30", 13.2, 15.6, 11.3
"2004/10/31", 16.4, 18.3, 15.1
"2004/11/01", 16.5, 17.9, 15.3
"2004/11/02", 16.4, 19.1, 15.2
"2004/11/03", 17.1, 22.0, 13.6
"2004/11/04", 15.7, 19.1, 10.7
"2004/11/05", 14.5, 17.9,  9.5
"2004/11/06", 15.6, 18.4, 13.3
"2004/11/07", 14.4, 17.7,  9.9
"2004/11/08", 14.8, 16.9, 13.2
"2004/11/09", 14.8, 18.3, 11.6
"2004/11/10", 15.0, 19.1,  9.8
"2004/11/11", 16.9, 19.7, 13.4
"2004/11/12", 17.3, 20.4, 14.4
"2004/11/13", 13.5, 15.5, 10.9
"2004/11/14", 11.8, 13.0, 10.3
"2004/11/15", 11.4, 12.5,  9.8
"2004/11/16", 12.0, 14.6, 10.2
"2004/11/17", 12.1, 15.7,  8.9
"2004/11/18", 12.5, 14.2,  9.8
"2004/11/19", 12.8, 13.5, 11.9
"2004/11/20", 13.6, 17.7, 11.6
"2004/11/21", 12.7, 15.5,  8.4
"2004/11/22", 12.4, 16.9,  9.3
"2004/11/23", 11.7, 15.5,  6.5
"2004/11/24", 11.3, 15.3,  6.4
"2004/11/25", 12.4, 17.2,  7.7
"2004/11/26", 11.6, 17.9,  7.4
"2004/11/27", 14.7, 19.0,  7.6
"2004/11/28", 10.5, 14.2,  5.7
"2004/11/29",  9.8, 12.4,  5.9
"2004/11/30",  8.5, 10.3,  6.7
"2004/12/01",  7.6, 11.9,  3.6
"2004/12/02",  9.2, 13.1,  3.8
"2004/12/03",  7.6, 12.3,  0.8
"2004/12/04",  7.7, 11.6,  3.0
"2004/12/05", 17.1, 22.9, 10.0
"2004/12/06",  9.9, 12.1,  6.4
"2004/12/07",  8.5, 15.1,  2.3
"2004/12/08",  9.2, 13.7,  3.9
"2004/12/09",  9.3, 10.5,  8.1
"2004/12/10", 10.4, 13.3,  8.4
"2004/12/11",  8.8, 15.7,  4.3
"2004/12/12",  7.3,  8.8,  6.3
"2004/12/13",  9.0, 13.9,  5.5
"2004/12/14",  7.6,  9.3,  6.1
"2004/12/15",  8.9, 11.7,  6.6
"2004/12/16", 11.7, 16.8,  7.5
"2004/12/17",  7.7, 10.4,  4.2
"2004/12/18",  7.8, 13.4,  5.6
"2004/12/19",  8.3, 10.3,  5.2
"2004/12/20",  8.7, 10.5,  6.9
"2004/12/21",  8.8, 11.3,  6.2
"2004/12/22",  7.0, 11.1,  4.2
"2004/12/23",  5.9,  9.4,  2.1
"2004/12/24",  4.9,  8.1,  0.5
"2004/12/25",  5.4,  8.3,  0.9
"2004/12/26",  5.0,  8.1, -0.4
"2004/12/27",  4.9,  9.0,  0.9
"2004/12/28",  3.9,  7.8, -1.0
"2004/12/29",  2.7,  5.4, -0.3
"2004/12/30",  2.9,  6.3, -0.8
"2004/12/31",  2.4,  5.4,  0.5
